| time (UTC) | temp C | wind direction | speed KPH | gust KPH | rain 1hr cm | rain 24hr cm | rain mn cm | humidity % | barometer mb |
| 20260508050045 | 5 | 183 | 4.8 | 6.4 | 0.00 | 0.00 | 0.00 | 50 | 1008.7 |
| 20260508044547 | 5 | 192 | 3.2 | 6.4 | 0.00 | 0.00 | 0.00 | 49 | 1008.8 |
| 20260508043043 | 6 | 257 | 1.6 | 4.8 | 0.00 | 0.00 | 0.00 | 48 | 1008.8 |
| 20260508041541 | 6 | 257 | 1.6 | 4.8 | 0.00 | 0.00 | 0.00 | 48 | 1008.9 |
| 20260508040049 | 6 | 257 | 0.0 | 4.8 | 0.00 | 0.00 | 0.00 | 47 | 1009.0 |
| 20260508034550 | 6 | 0 | 1.6 | 6.4 | 0.00 | 0.00 | 0.00 | 45 | 1009.0 |
| 20260508033049 | 7 | 258 | 1.6 | 4.8 | 0.00 | 0.00 | 0.00 | 45 | 1009.0 |
| 20260508031554 | 7 | 321 | 1.6 | 4.8 | 0.00 | 0.00 | 0.00 | 44 | 1009.0 |
| 20260508030057 | 8 | 0 | 0.0 | 0.0 | 0.00 | 0.00 | 0.00 | 41 | 1009.1 |
| 20260508024608 | 8 | 0 | 0.0 | 0.0 | 0.00 | 0.00 | 0.00 | 38 | 1009.1 |
| 20260508023046 | 9 | 0 | 0.0 | 0.0 | 0.00 | 0.00 | 0.00 | 37 | 1009.1 |
| 20260508021549 | 9 | 0 | 0.0 | 0.0 | 0.00 | 0.00 | 0.00 | 36 | 1008.9 |
| 20260508020050 | 9 | 0 | 0.0 | 0.0 | 0.00 | 0.00 | 0.00 | 36 | 1008.8 |
| 20260508014551 | 10 | 0 | 0.0 | 0.0 | 0.00 | 0.00 | 0.00 | 35 | 1008.6 |
| 20260508013045 | 11 | 0 | 0.0 | 0.0 | 0.00 | 0.00 | 0.00 | 34 | 1008.5 |
| 20260508011547 | 11 | 0 | 0.0 | 0.0 | 0.00 | 0.00 | 0.00 | 34 | 1008.4 |
| 20260508010054 | 12 | 0 | 0.0 | 0.0 | 0.00 | 0.00 | 0.00 | 32 | 1008.3 |
| 20260508004552 | 12 | 0 | 0.0 | 3.2 | 0.00 | 0.00 | 0.00 | 30 | 1008.2 |
| 20260508003049 | 13 | 319 | 1.6 | 9.7 | 0.00 | 0.00 | 0.00 | 29 | 1008.2 |
| 20260508001550 | 13 | 318 | 4.8 | 14.5 | 0.00 | 0.00 | 0.00 | 28 | 1008.2 |
| 20260508000048 | 13 | 328 | 3.2 | 6.4 | 0.00 | 0.00 | 0.00 | 29 | 1008.4 |
| 20260507234542 | 13 | 309 | 6.4 | 16.1 | 0.00 | 0.00 | 0.00 | 28 | 1008.5 |
| 20260507233043 | 13 | 348 | 6.4 | 17.7 | 0.00 | 0.00 | 0.00 | 28 | 1008.5 |
| 20260507231544 | 13 | 348 | 6.4 | 19.3 | 0.00 | 0.00 | 0.00 | 28 | 1008.6 |
| 20260507230100 | 13 | 345 | 4.8 | 14.5 | 0.00 | 0.00 | 0.00 | 28 | 1008.7 |
| 20260507224551 | 13 | 316 | 6.4 | 14.5 | 0.00 | 0.00 | 0.00 | 28 | 1008.7 |
| 20260507223046 | 13 | 309 | 8.0 | 19.3 | 0.00 | 0.00 | 0.00 | 28 | 1008.8 |
| 20260507221544 | 13 | 344 | 11.3 | 20.9 | 0.00 | 0.00 | 0.00 | 27 | 1008.8 |
| 20260507220053 | 13 | 329 | 4.8 | 17.7 | 0.00 | 0.00 | 0.00 | 27 | 1008.8 |
| 20260507214548 | 13 | 318 | 6.4 | 19.3 | 0.00 | 0.00 | 0.00 | 27 | 1008.9 |
| 20260507213049 | 12 | 345 | 8.0 | 19.3 | 0.00 | 0.00 | 0.00 | 28 | 1009.0 |
| 20260507211547 | 12 | 341 | 8.0 | 17.7 | 0.00 | 0.00 | 0.00 | 28 | 1009.1 |
| 20260507210058 | 12 | 327 | 9.7 | 20.9 | 0.00 | 0.00 | 0.00 | 28 | 1009.2 |
| 20260507204546 | 12 | 309 | 6.4 | 17.7 | 0.00 | 0.00 | 0.00 | 28 | 1009.2 |
| 20260507203114 | 12 | 287 | 3.2 | 17.7 | 0.00 | 0.00 | 0.00 | 31 | 1009.4 |
| 20260507201541 | 12 | 323 | 8.0 | 22.5 | 0.00 | 0.00 | 0.00 | 28 | 1009.6 |
| 20260507200037 | 12 | 344 | 6.4 | 14.5 | 0.00 | 0.00 | 0.00 | 29 | 1009.7 |
| 20260507194555 | 11 | 351 | 4.8 | 20.9 | 0.00 | 0.00 | 0.00 | 32 | 1009.9 |
| 20260507193044 | 11 | 315 | 8.0 | 24.1 | 0.00 | 0.00 | 0.00 | 30 | 1010.2 |
| 20260507191546 | 11 | 278 | 4.8 | 22.5 | 0.00 | 0.00 | 0.00 | 31 | 1010.0 |
| 20260507190047 | 11 | 261 | 8.0 | 19.3 | 0.00 | 0.00 | 0.00 | 29 | 1010.0 |
| 20260507184538 | 11 | 334 | 11.3 | 19.3 | 0.00 | 0.00 | 0.00 | 30 | 1010.1 |
| 20260507183042 | 11 | 280 | 6.4 | 24.1 | 0.00 | 0.00 | 0.00 | 32 | 1010.3 |
| 20260507181544 | 11 | 339 | 3.2 | 19.3 | 0.00 | 0.00 | 0.00 | 34 | 1010.3 |
| 20260507180042 | 10 | 328 | 8.0 | 20.9 | 0.00 | 0.00 | 0.00 | 33 | 1010.5 |
| 20260507174545 | 10 | 325 | 8.0 | 27.4 | 0.00 | 0.00 | 0.00 | 33 | 1010.5 |
| 20260507173109 | 10 | 325 | 9.7 | 19.3 | 0.00 | 0.00 | 0.00 | 33 | 1010.7 |
| 20260507171541 | 10 | 338 | 4.8 | 17.7 | 0.00 | 0.00 | 0.00 | 35 | 1010.8 |
| 20260507170044 | 9 | 329 | 8.0 | 19.3 | 0.00 | 0.00 | 0.00 | 34 | 1011.0 |
| 20260507164542 | 9 | 333 | 9.7 | 22.5 | 0.00 | 0.00 | 0.00 | 36 | 1011.0 |
| 20260507163041 | 9 | 323 | 6.4 | 17.7 | 0.00 | 0.00 | 0.00 | 37 | 1011.1 |
| 20260507161549 | 8 | 338 | 4.8 | 12.9 | 0.00 | 0.00 | 0.00 | 38 | 1011.1 |
| 20260507160049 | 8 | 351 | 3.2 | 9.7 | 0.00 | 0.00 | 0.00 | 42 | 1011.3 |
| 20260507154542 | 8 | 5 | 6.4 | 16.1 | 0.00 | 0.00 | 0.00 | 40 | 1011.3 |
| 20260507153054 | 8 | 284 | 1.6 | 12.9 | 0.00 | 0.00 | 0.00 | 46 | 1011.5 |
| 20260507151546 | 8 | 349 | 4.8 | 8.0 | 0.00 | 0.00 | 0.00 | 47 | 1011.5 |
| 20260507150045 | 7 | 0 | 0.0 | 8.0 | 0.00 | 0.00 | 0.00 | 51 | 1011.6 |
| 20260507144543 | 6 | 45 | 3.2 | 8.0 | 0.00 | 0.00 | 0.00 | 54 | 1011.6 |
| 20260507143059 | 6 | 341 | 1.6 | 6.4 | 0.00 | 0.00 | 0.00 | 57 | 1011.7 |
| 20260507141550 | 6 | 342 | 1.6 | 6.4 | 0.00 | 0.00 | 0.00 | 60 | 1011.6 |
| 20260507140050 | 5 | 269 | 1.6 | 4.8 | 0.00 | 0.00 | 0.00 | 64 | 1011.7 |
| 20260507134546 | 4 | 269 | 1.6 | 4.8 | 0.00 | 0.00 | 0.00 | 66 | 1011.8 |
| 20260507133111 | 3 | 269 | 1.6 | 4.8 | 0.00 | 0.00 | 0.00 | 69 | 1011.9 |
| 20260507131546 | 2 | 210 | 1.6 | 4.8 | 0.00 | 0.00 | 0.00 | 72 | 1011.9 |
| 20260507130057 | 2 | 210 | 1.6 | 4.8 | 0.00 | 0.00 | 0.00 | 77 | 1012.0 |
| 20260507124537 | 1 | 210 | 1.6 | 4.8 | 0.00 | 0.00 | 0.00 | 80 | 1012.0 |
| 20260507123050 | 0 | 210 | 1.6 | 4.8 | 0.00 | 0.00 | 0.00 | 81 | 1012.0 |
| 20260507121545 | 0 | 210 | 3.2 | 4.8 | 0.00 | 0.00 | 0.00 | 80 | 1011.9 |
| 20260507120050 | 0 | 0 | 0.0 | 0.0 | 0.00 | 0.00 | 0.00 | 79 | 1011.9 |
| 20260507114545 | 0 | 0 | 0.0 | 0.0 | 0.00 | 0.00 | 0.00 | 79 | 1011.8 |
| 20260507113043 | 0 | 0 | 0.0 | 0.0 | 0.00 | 0.00 | 0.00 | 79 | 1011.7 |
| 20260507111543 | -1 | 0 | 0.0 | 0.0 | 0.00 | 0.00 | 0.00 | 80 | 1011.7 |
| 20260507110045 | -1 | 0 | 0.0 | 4.8 | 0.00 | 0.00 | 0.00 | 80 | 1011.7 |
| 20260507104543 | -1 | 209 | 0.0 | 3.2 | 0.00 | 0.00 | 0.00 | 79 | 1011.7 |
| 20260507103051 | 0 | 209 | 1.6 | 4.8 | 0.00 | 0.00 | 0.00 | 79 | 1011.8 |
| 20260507101549 | 0 | 209 | 3.2 | 6.4 | 0.00 | 0.00 | 0.00 | 79 | 1011.7 |
| 20260507100043 | 0 | 210 | 3.2 | 6.4 | 0.00 | 0.00 | 0.00 | 78 | 1011.7 |
| 20260507094557 | 0 | 209 | 1.6 | 6.4 | 0.00 | 0.00 | 0.00 | 77 | 1011.9 |
| 20260507093047 | 0 | 211 | 3.2 | 6.4 | 0.00 | 0.00 | 0.00 | 78 | 1012.0 |
| 20260507091546 | 0 | 211 | 3.2 | 6.4 | 0.00 | 0.00 | 0.00 | 78 | 1012.1 |
| 20260507090047 | 0 | 211 | 3.2 | 8.0 | 0.00 | 0.00 | 0.00 | 78 | 1012.0 |
| 20260507084547 | 0 | 211 | 4.8 | 8.0 | 0.00 | 0.00 | 0.00 | 78 | 1012.1 |
| 20260507083043 | 0 | 211 | 4.8 | 8.0 | 0.00 | 0.00 | 0.00 | 78 | 1012.1 |
| 20260507081546 | 0 | 211 | 4.8 | 8.0 | 0.00 | 0.00 | 0.00 | 77 | 1012.0 |
| 20260507080048 | 0 | 213 | 1.6 | 6.4 | 0.00 | 0.00 | 0.00 | 75 | 1012.2 |
| 20260507074549 | 0 | 213 | 3.2 | 6.4 | 0.00 | 0.00 | 0.00 | 75 | 1012.3 |
| 20260507073048 | 0 | 215 | 3.2 | 4.8 | 0.00 | 0.00 | 0.00 | 76 | 1012.5 |
| 20260507071541 | 0 | 217 | 3.2 | 6.4 | 0.00 | 0.00 | 0.00 | 78 | 1012.5 |
| 20260507070054 | 0 | 0 | 0.0 | 0.0 | 0.00 | 0.00 | 0.00 | 77 | 1012.8 |
| 20260507064547 | 0 | 0 | 0.0 | 3.2 | 0.00 | 0.00 | 0.00 | 77 | 1013.0 |
| 20260507063041 | 0 | 0 | 0.0 | 1.6 | 0.00 | 0.00 | 0.00 | 75 | 1013.0 |
| 20260507061543 | 1 | 0 | 0.0 | 0.0 | 0.00 | 0.00 | 0.00 | 75 | 1013.1 |
| 20260507060045 | 1 | 0 | 0.0 | 3.2 | 0.00 | 0.00 | 0.00 | 75 | 1013.2 |
| 20260507054542 | 1 | 299 | 1.6 | 4.8 | 0.00 | 0.00 | 0.00 | 75 | 1013.2 |
| 20260507053039 | 1 | 0 | 0.0 | 0.0 | 0.00 | 0.00 | 0.00 | 75 | 1013.2 |
| 20260507051549 | 1 | 0 | 0.0 | 0.0 | 0.00 | 0.00 | 0.00 | 73 | 1013.2 |